QPF
0.00 0.00 0.00 0.00 0.00 0.00 0.00 0.00 0.00 0.00 0.00 0.00 0.00 0.00 0.01 0.01 0.04 0.05 0.05 0.05 0.07 0.07 0.04 0.02 0.02 0.01 0.01 0.01 0.01 0.01 0.01 0.01 0.02 0.02 0.01 0.02 0.03 0.01 0.02 0.01 0.01 0.01 0.02 0.03
0.00 0.00 0.00 0.00 0.00 0.00 0.00 0.00 0.00 0.00 0.00 0.00 0.00 0.01 0.01 0.01 0.06 0.07 0.08 0.07 0.06 0.05 0.02 0.02 0.02 0.02 0.01 0.01 0.01 0.01 0.01 0.01 0.02 0.02 0.01 0.01 0.02 0.01 0.01 0.01 0.01 0.02 0.02 0.02
0.00 0.00 0.00 0.00 0.00 0.00 0.00 0.00 0.00 0.00 0.00 0.01 0.01 0.02 0.01 0.02 0.03 0.03 0.06 0.06 0.07 0.03 0.03 0.03 0.02 0.03 0.03 0.03 0.02 0.02 0.02 0.02 0.02 0.02 0.01 0.01 0.03 0.03 0.03 0.02 0.02 0.02 0.02 0.02
0.00 0.00 0.00 0.00 0.00 0.00 0.00 0.00 0.00 0.00 0.01 0.01 0.01 0.02 0.01 0.02 0.03 0.02 0.02 0.02 0.04 0.02 0.01 0.02 0.02 0.04 0.04 0.04 0.05 0.05 0.04 0.03 0.03 0.03 0.01 0.01 0.02 0.04 0.04 0.03 0.02 0.02 0.02 0.02
0.00 0.00 0.00 0.00 0.00 0.00 0.00 0.00 0.00 0.01 0.01 0.02 0.01 0.01 0.01 0.01 0.01 0.02 0.02 0.01 0.01 0.01 0.01 0.01 0.02 0.02 0.04 0.06 0.08 0.07 0.07 0.06 0.05 0.03 0.02 0.02 0.03 0.05 0.04 0.02 0.02 0.02 0.02 0.01
0.00 0.00 0.00 0.00 0.00 0.00 0.00 0.00 0.00 0.00 0.01 0.02 0.01 0.01 0.01 0.01 0.01 0.01 0.01 0.01 0.01 0.01 0.02 0.02 0.02 0.02 0.03 0.03 0.06 0.11 0.08 0.09 0.08 0.06 0.03 0.03 0.05 0.05 0.03 0.02 0.01 0.02 0.02 0.01
0.00 0.00 0.00 0.00 0.00 0.00 0.00 0.00 0.01 0.01 0.00 0.01 0.00 0.00 0.01 0.01 0.01 0.01 0.02 0.02 0.02 0.04 0.03 0.02 0.02 0.02 0.02 0.02 0.03 0.05 0.07 0.06 0.07 0.07 0.05 0.04 0.03 0.04 0.03 0.02 0.01 0.01 0.02 0.01
0.00 0.00 0.00 0.00 0.00 0.00 0.00 0.00 0.00 0.00 0.00 0.00 0.00 0.00 0.01 0.01 0.01 0.01 0.02 0.03 0.03 0.03 0.02 0.02 0.03 0.02 0.03 0.03 0.04 0.07 0.06 0.05 0.06 0.06 0.06 0.05 0.03 0.03 0.03 0.02 0.03 0.03 0.03 0.03
0.00 0.00 0.00 0.00 0.00 0.00 0.00 0.00 0.00 0.01 0.01 0.01 0.00 0.01 0.01 0.01 0.01 0.01 0.02 0.03 0.04 0.04 0.03 0.02 0.01 0.02 0.03 0.03 0.04 0.06 0.09 0.08 0.06 0.07 0.07 0.05 0.04 0.04 0.03 0.03 0.03 0.02 0.03 0.03
0.00 0.00 0.00 0.00 0.00 0.00 0.00 0.00 0.00 0.01 0.01 0.02 0.01 0.01 0.02 0.01 0.02 0.03 0.03 0.05 0.05 0.05 0.04 0.03 0.02 0.02 0.05 0.04 0.03 0.04 0.07 0.11 0.11 0.08 0.09 0.08 0.06 0.05 0.04 0.03 0.03 0.02 0.03 0.04
0.00 0.00 0.00 0.00 0.00 0.00 0.00 0.00 0.00 0.01 0.01 0.02 0.03 0.03 0.02 0.02 0.03 0.05 0.06 0.06 0.08 0.07 0.06 0.06 0.05 0.04 0.04 0.03 0.03 0.05 0.09 0.11 0.11 0.10 0.09 0.10 0.07 0.05 0.05 0.04 0.04 0.02 0.03 0.03
0.00 0.00 0.00 0.00 0.00 0.00 0.00 0.00 0.00 0.01 0.02 0.03 0.03 0.03 0.03 0.03 0.05 0.07 0.06 0.07 0.09 0.11 0.13 0.10 0.07 0.05 0.04 0.03 0.03 0.03 0.05 0.08 0.09 0.07 0.07 0.08 0.08 0.06 0.05 0.02 0.02 0.01 0.01 0.02
0.00 0.00 0.01 0.00 0.00 0.00 0.01 0.01 0.01 0.01 0.02 0.04 0.03 0.03 0.03 0.02 0.05 0.07 0.07 0.06 0.07 0.11 0.17 0.16 0.09 0.06 0.05 0.04 0.03 0.03 0.03 0.05 0.06 0.08 0.06 0.06 0.08 0.07 0.05 0.03 0.03 0.03 0.04 0.04
0.00 0.00 0.01 0.01 0.01 0.01 0.01 0.01 0.01 0.01 0.03 0.03 0.03 0.03 0.02 0.03 0.06 0.10 0.12 0.12 0.11 0.14 0.15 0.12 0.07 0.06 0.06 0.05 0.04 0.02 0.02 0.03 0.05 0.07 0.09 0.06 0.06 0.06 0.05 0.05 0.04 0.04 0.04 0.04
0.00 0.00 0.00 0.01 0.01 0.01 0.01 0.01 0.01 0.01 0.01 0.02 0.02 0.03 0.04 0.03 0.04 0.06 0.09 0.13 0.15 0.14 0.12 0.08 0.07 0.07 0.05 0.04 0.03 0.02 0.01 0.01 0.03 0.07 0.10 0.10 0.07 0.06 0.05 0.05 0.05 0.05 0.04 0.04
0.00 0.00 0.00 0.00 0.01 0.01 0.01 0.01 0.01 0.01 0.01 0.02 0.03 0.03 0.04 0.04 0.03 0.04 0.05 0.07 0.12 0.16 0.13 0.08 0.07 0.07 0.07 0.04 0.02 0.01 0.01 0.01 0.02 0.05 0.07 0.08 0.07 0.06 0.06 0.06 0.07 0.07 0.08 0.07
0.00 0.00 0.01 0.01 0.01 0.01 0.01 0.01 0.01 0.02 0.01 0.02 0.03 0.02 0.03 0.04 0.04 0.04 0.04 0.05 0.07 0.11 0.12 0.09 0.07 0.07 0.06 0.03 0.02 0.01 0.01 0.01 0.01 0.02 0.05 0.06 0.05 0.05 0.06 0.07 0.08 0.09 0.10 0.10
0.00 0.01 0.01 0.01 0.01 0.01 0.01 0.01 0.01 0.02 0.04 0.04 0.03 0.02 0.03 0.05 0.04 0.04 0.03 0.03 0.04 0.07 0.11 0.12 0.11 0.10 0.06 0.04 0.03 0.02 0.02 0.03 0.02 0.02 0.03 0.04 0.04 0.04 0.05 0.07 0.10 0.10 0.08 0.09
0.00 0.01 0.02 0.02 0.02 0.02 0.01 0.02 0.02 0.03 0.05 0.05 0.05 0.05 0.05 0.07 0.05 0.05 0.04 0.04 0.04 0.05 0.10 0.14 0.16 0.15 0.13 0.07 0.04 0.03 0.03 0.05 0.04 0.03 0.03 0.04 0.04 0.05 0.05 0.06 0.10 0.11 0.09 0.08
0.01 0.01 0.02 0.02 0.03 0.03 0.02 0.02 0.02 0.03 0.06 0.06 0.05 0.05 0.06 0.06 0.06 0.05 0.04 0.04 0.06 0.09 0.13 0.15 0.12 0.11 0.13 0.08 0.04 0.03 0.03 0.04 0.05 0.03 0.02 0.04 0.05 0.05 0.05 0.06 0.09 0.10 0.09 0.09
0.01 0.02 0.02 0.02 0.02 0.02 0.02 0.02 0.04 0.06 0.07 0.08 0.07 0.06 0.05 0.05 0.05 0.04 0.03 0.05 0.09 0.13 0.13 0.12 0.12 0.08 0.06 0.06 0.04 0.03 0.02 0.03 0.03 0.02 0.02 0.03 0.05 0.05 0.04 0.06 0.08 0.07 0.05 0.07
0.03 0.03 0.03 0.03 0.02 0.02 0.01 0.02 0.05 0.10 0.07 0.09 0.09 0.09 0.09 0.07 0.08 0.08 0.08 0.09 0.11 0.06 0.06 0.08 0.09 0.07 0.05 0.04 0.02 0.01 0.02 0.02 0.01 0.01 0.02 0.02 0.02 0.03 0.04 0.05 0.05 0.05 0.05 0.06
0.04 0.04 0.05 0.05 0.04 0.03 0.03 0.04 0.04 0.07 0.10 0.10 0.08 0.07 0.08 0.07 0.06 0.07 0.07 0.07 0.06 0.05 0.05 0.07 0.06 0.05 0.03 0.03 0.02 0.02 0.02 0.02 0.02 0.01 0.02 0.02 0.02 0.03 0.04 0.04 0.04 0.05 0.06 0.05
0.04 0.03 0.04 0.05 0.06 0.05 0.04 0.04 0.04 0.05 0.10 0.09 0.07 0.06 0.06 0.05 0.04 0.04 0.04 0.04 0.03 0.05 0.05 0.06 0.05 0.03 0.03 0.03 0.03 0.03 0.04 0.03 0.02 0.02 0.02 0.02 0.03 0.03 0.03 0.03 0.05 0.06 0.05 0.05
0.04 0.04 0.05 0.04 0.04 0.06 0.06 0.04 0.05 0.08 0.07 0.06 0.05 0.05 0.06 0.05 0.04 0.04 0.04 0.04 0.03 0.06 0.08 0.06 0.06 0.04 0.03 0.03 0.03 0.02 0.03 0.03 0.03 0.03 0.03 0.03 0.03 0.03 0.03 0.03 0.05 0.07 0.07 0.05
0.05 0.06 0.07 0.05 0.04 0.06 0.06 0.05 0.06 0.08 0.07 0.07 0.05 0.04 0.05 0.04 0.05 0.06 0.05 0.05 0.05 0.07 0.09 0.09 0.08 0.07 0.04 0.03 0.03 0.03 0.02 0.03 0.02 0.02 0.03 0.03 0.03 0.03 0.04 0.05 0.05 0.05 0.07 0.07
MSLP
1010.82 1011.49 1011.91 1012.05 1011.95 1011.66 1011.26 1010.83 1010.44 1010.10 1009.83 1009.59 1009.36 1009.09 1008.76 1008.36 1007.91 1007.43 1006.97 1006.56 1006.23 1005.99 1005.84 1005.78 1005.77 1005.81 1005.88 1006.00 1006.18 1006.43 1006.77 1007.22 1007.77 1008.39 1009.06 1009.74 1010.38 1010.96 1011.46 1011.89 1012.25 1012.58 1012.91 1013.25
1011.15 1011.69 1011.96 1011.99 1011.81 1011.51 1011.17 1010.87 1010.65 1010.52 1010.47 1010.43 1010.37 1010.23 1009.98 1009.63 1009.19 1008.70 1008.22 1007.78 1007.42 1007.14 1006.94 1006.80 1006.70 1006.62 1006.57 1006.55 1006.59 1006.72 1006.97 1007.34 1007.84 1008.42 1009.06 1009.70 1010.29 1010.81 1011.24 1011.59 1011.89 1012.16 1012.46 1012.79
1011.39 1011.78 1011.92 1011.85 1011.63 1011.37 1011.14 1011.02 1011.03 1011.15 1011.35 1011.55 1011.67 1011.68 1011.53 1011.23 1010.81 1010.32 1009.83 1009.36 1008.97 1008.64 1008.38 1008.16 1007.95 1007.75 1007.55 1007.39 1007.28 1007.27 1007.40 1007.68 1008.09 1008.61 1009.19 1009.77 1010.30 1010.75 1011.11 1011.38 1011.60 1011.81 1012.06 1012.37
1011.61 1011.86 1011.89 1011.75 1011.53 1011.35 1011.27 1011.36 1011.62 1012.02 1012.47 1012.90 1013.22 1013.37 1013.31 1013.06 1012.65 1012.16 1011.63 1011.13 1010.69 1010.31 1009.98 1009.67 1009.36 1009.03 1008.69 1008.38 1008.12 1007.97 1007.97 1008.13 1008.45 1008.88 1009.38 1009.89 1010.35 1010.73 1011.00 1011.20 1011.35 1011.50 1011.69 1011.97
1011.91 1012.03 1011.97 1011.79 1011.61 1011.52 1011.61 1011.91 1012.43 1013.08 1013.77 1014.41 1014.90 1015.16 1015.17 1014.94 1014.53 1014.00 1013.43 1012.89 1012.39 1011.94 1011.53 1011.14 1010.73 1010.28 1009.82 1009.37 1008.98 1008.69 1008.56 1008.60 1008.80 1009.14 1009.56 1009.99 1010.37 1010.67 1010.88 1011.01 1011.09 1011.19 1011.33 1011.57
1012.36 1012.38 1012.25 1012.05 1011.91 1011.93 1012.18 1012.67 1013.40 1014.26 1015.14 1015.94 1016.53 1016.87 1016.91 1016.67 1016.23 1015.66 1015.04 1014.43 1013.86 1013.35 1012.88 1012.41 1011.91 1011.38 1010.81 1010.24 1009.73 1009.32 1009.07 1008.99 1009.08 1009.32 1009.64 1009.99 1010.30 1010.54 1010.69 1010.76 1010.79 1010.84 1010.95 1011.15
1013.00 1012.94 1012.75 1012.55 1012.46 1012.57 1012.93 1013.58 1014.44 1015.43 1016.43 1017.31 1017.96 1018.31 1018.34 1018.07 1017.59 1016.96 1016.28 1015.61 1014.99 1014.43 1013.90 1013.37 1012.81 1012.21 1011.57 1010.92 1010.31 1009.80 1009.44 1009.25 1009.23 1009.37 1009.60 1009.86 1010.10 1010.28 1010.38 1010.41 1010.41 1010.43 1010.51 1010.69
1013.78 1013.65 1013.44 1013.25 1013.20 1013.36 1013.80 1014.52 1015.45 1016.49 1017.51 1018.40 1019.03 1019.35 1019.34 1019.03 1018.49 1017.81 1017.08 1016.37 1015.71 1015.11 1014.55 1014.00 1013.40 1012.76 1012.07 1011.37 1010.69 1010.09 1009.64 1009.35 1009.23 1009.26 1009.40 1009.58 1009.76 1009.89 1009.95 1009.96 1009.94 1009.95 1010.01 1010.19
1014.59 1014.45 1014.24 1014.07 1014.04 1014.23 1014.69 1015.41 1016.32 1017.33 1018.30 1019.12 1019.68 1019.94 1019.87 1019.50 1018.92 1018.22 1017.47 1016.74 1016.07 1015.46 1014.89 1014.32 1013.72 1013.06 1012.35 1011.60 1010.87 1010.21 1009.67 1009.29 1009.07 1009.00 1009.04 1009.15 1009.26 1009.35 1009.39 1009.39 1009.38 1009.39 1009.46 1009.64
1015.33 1015.21 1015.03 1014.89 1014.88 1015.08 1015.51 1016.17 1017.01 1017.91 1018.77 1019.48 1019.94 1020.11 1019.99 1019.59 1018.99 1018.29 1017.55 1016.83 1016.17 1015.57 1015.01 1014.44 1013.83 1013.17 1012.43 1011.66 1010.89 1010.17 1009.56 1009.08 1008.77 1008.59 1008.54 1008.56 1008.61 1008.67 1008.70 1008.71 1008.72 1008.76 1008.86 1009.07
1015.88 1015.82 1015.71 1015.63 1015.65 1015.83 1016.22 1016.79 1017.50 1018.27 1018.98 1019.55 1019.91 1020.01 1019.84 1019.43 1018.86 1018.19 1017.48 1016.80 1016.17 1015.59 1015.03 1014.46 1013.84 1013.16 1012.40 1011.59 1010.78 1009.99 1009.30 1008.73 1008.31 1008.04 1007.89 1007.83 1007.82 1007.85 1007.88 1007.91 1007.96 1008.05 1008.21 1008.47
1016.21 1016.25 1016.23 1016.23 1016.29 1016.48 1016.81 1017.29 1017.87 1018.48 1019.05 1019.50 1019.76 1019.80 1019.62 1019.24 1018.71 1018.10 1017.46 1016.82 1016.22 1015.64 1015.07 1014.47 1013.82 1013.10 1012.29 1011.43 1010.55 1009.70 1008.92 1008.25 1007.73 1007.35 1007.10 1006.96 1006.90 1006.90 1006.94 1007.01 1007.12 1007.28 1007.51 1007.83
1016.32 1016.49 1016.60 1016.69 1016.82 1017.02 1017.32 1017.71 1018.18 1018.66 1019.11 1019.45 1019.65 1019.67 1019.51 1019.17 1018.71 1018.17 1017.59 1016.99 1016.40 1015.81 1015.20 1014.54 1013.82 1013.01 1012.13 1011.19 1010.23 1009.29 1008.42 1007.65 1007.02 1006.53 1006.18 1005.96 1005.86 1005.83 1005.89 1006.00 1006.18 1006.43 1006.75 1007.16
1016.31 1016.61 1016.85 1017.06 1017.26 1017.49 1017.78 1018.12 1018.50 1018.88 1019.24 1019.52 1019.68 1019.71 1019.58 1019.32 1018.94 1018.47 1017.93 1017.35 1016.75 1016.10 1015.41 1014.66 1013.82 1012.91 1011.92 1010.88 1009.83 1008.79 1007.81 1006.94 1006.20 1005.61 1005.17 1004.88 1004.72 1004.68 1004.75 1004.91 1005.16 1005.50 1005.92 1006.43
1016.28 1016.70 1017.06 1017.37 1017.66 1017.93 1018.22 1018.53 1018.86 1019.19 1019.49 1019.73 1019.89 1019.94 1019.88 1019.68 1019.37 1018.95 1018.45 1017.86 1017.20 1016.48 1015.67 1014.79 1013.82 1012.77 1011.66 1010.51 1009.35 1008.21 1007.14 1006.17 1005.34 1004.65 1004.12 1003.75 1003.55 1003.48 1003.57 1003.77 1004.09 1004.51 1005.03 1005.63
1016.33 1016.84 1017.29 1017.69 1018.04 1018.36 1018.66 1018.96 1019.26 1019.55 1019.83 1020.06 1020.24 1020.33 1020.31 1020.18 1019.92 1019.54 1019.04 1018.42 1017.69 1016.85 1015.92 1014.89 1013.77 1012.59 1011.35 1010.09 1008.83 1007.61 1006.46 1005.41 1004.49 1003.72 1003.11 1002.67 1002.41 1002.33 1002.41 1002.64 1003.02 1003.51 1004.11 1004.80
1016.52 1017.07 1017.57 1018.02 1018.41 1018.75 1019.06 1019.35 1019.64 1019.91 1020.18 1020.42 1020.62 1020.74 1020.77 1020.69 1020.47 1020.10 1019.58 1018.91 1018.09 1017.14 1016.08 1014.91 1013.66 1012.35 1011.02 1009.67 1008.34 1007.06 1005.85 1004.74 1003.75 1002.91 1002.23 1001.73 1001.41 1001.29 1001.35 1001.60 1002.00 1002.55 1003.20 1003.95
1016.86 1017.40 1017.91 1018.35 1018.75 1019.09 1019.39 1019.67 1019.93 1020.19 1020.45 1020.70 1020.91 1021.06 1021.13 1021.07 1020.87 1020.50 1019.95 1019.23 1018.34 1017.29 1016.12 1014.84 1013.49 1012.10 1010.70 1009.31 1007.94 1006.63 1005.40 1004.26 1003.23 1002.33 1001.59 1001.02 1000.64 1000.46 1000.49 1000.71 1001.11 1001.67 1002.36 1003.13
1017.30 1017.79 1018.25 1018.66 1019.01 1019.32 1019.59 1019.84 1020.07 1020.32 1020.56 1020.80 1021.02 1021.19 1021.28 1021.24 1021.04 1020.67 1020.10 1019.34 1018.39 1017.28 1016.04 1014.70 1013.31 1011.88 1010.46 1009.06 1007.71 1006.41 1005.18 1004.03 1002.97 1002.04 1001.24 1000.60 1000.15 999.90 999.87 1000.04 1000.42 1000.96 1001.63 1002.40
1017.74 1018.16 1018.54 1018.88 1019.18 1019.43 1019.65 1019.85 1020.05 1020.26 1020.48 1020.71 1020.93 1021.10 1021.20 1021.16 1020.97 1020.60 1020.03 1019.25 1018.28 1017.15 1015.89 1014.55 1013.15 1011.75 1010.35 1009.00 1007.68 1006.42 1005.22 1004.08 1003.02 1002.05 1001.20 1000.50 999.97 999.64 999.52 999.62 999.93 1000.42 1001.05 1001.79
1018.11 1018.44 1018.74 1019.00 1019.22 1019.40 1019.56 1019.71 1019.86 1020.04 1020.23 1020.45 1020.65 1020.82 1020.91 1020.89 1020.71 1020.34 1019.78 1019.02 1018.07 1016.96 1015.74 1014.43 1013.09 1011.74 1010.42 1009.13 1007.88 1006.68 1005.52 1004.41 1003.35 1002.36 1001.46 1000.69 1000.07 999.65 999.44 999.45 999.67 1000.08 1000.64 1001.32
1018.34 1018.59 1018.81 1019.00 1019.14 1019.26 1019.36 1019.46 1019.57 1019.71 1019.88 1020.06 1020.25 1020.41 1020.50 1020.49 1020.32 1019.99 1019.46 1018.74 1017.84 1016.79 1015.63 1014.41 1013.15 1011.89 1010.65 1009.45 1008.28 1007.15 1006.04 1004.96 1003.91 1002.89 1001.95 1001.12 1000.42 999.90 999.58 999.48 999.60 999.91 1000.39 1000.99
1018.40 1018.61 1018.77 1018.89 1018.98 1019.04 1019.10 1019.16 1019.24 1019.35 1019.49 1019.65 1019.82 1019.97 1020.07 1020.06 1019.92 1019.62 1019.14 1018.48 1017.66 1016.69 1015.63 1014.49 1013.33 1012.18 1011.03 1009.92 1008.83 1007.77 1006.71 1005.65 1004.61 1003.58 1002.61 1001.71 1000.94 1000.33 999.91 999.70 999.71 999.91 1000.28 1000.79
1018.32 1018.49 1018.61 1018.70 1018.76 1018.80 1018.83 1018.87 1018.92 1019.01 1019.14 1019.28 1019.44 1019.59 1019.68 1019.69 1019.57 1019.31 1018.89 1018.31 1017.57 1016.70 1015.73 1014.70 1013.64 1012.58 1011.53 1010.49 1009.47 1008.46 1007.45 1006.42 1005.38 1004.35 1003.36 1002.42 1001.59 1000.90 1000.39 1000.08 999.97 1000.06 1000.32 1000.71
1018.12 1018.27 1018.39 1018.47 1018.52 1018.55 1018.58 1018.62 1018.67 1018.76 1018.87 1019.01 1019.16 1019.30 1019.40 1019.42 1019.33 1019.11 1018.75 1018.23 1017.58 1016.80 1015.93 1015.00 1014.03 1013.05 1012.08 1011.11 1010.15 1009.18 1008.20 1007.20 1006.19 1005.17 1004.17 1003.21 1002.35 1001.60 1001.02 1000.62 1000.41 1000.38 1000.51 1000.78
1017.83 1017.99 1018.11 1018.20 1018.27 1018.32 1018.37 1018.43 1018.50 1018.59 1018.71 1018.84 1018.99 1019.13 1019.23 1019.26 1019.20 1019.02 1018.71 1018.27 1017.69 1017.00 1016.21 1015.36 1014.47 1013.56 1012.65 1011.73 1010.82 1009.89 1008.95 1007.99 1007.01 1006.01 1005.03 1004.09 1003.22 1002.45 1001.82 1001.34 1001.04 1000.89 1000.89 1001.02
Thickness
5769 5752 5744 5753 5758 5760 5761 5758 5757 5772 5792 5787 5780 5782 5792 5802 5802 5799 5798 5798 5797 5798 5803 5805 5803 5801 5796 5792 5789 5784 5780 5777 5774 5768 5763 5758 5755 5753 5751 5750 5749 5747 5745 5743
5746 5742 5759 5766 5767 5764 5760 5753 5756 5771 5789 5786 5778 5780 5792 5798 5799 5801 5798 5797 5797 5795 5796 5797 5797 5795 5793 5789 5786 5782 5778 5775 5772 5768 5764 5759 5755 5751 5749 5748 5746 5745 5743 5741
5736 5752 5767 5763 5758 5756 5756 5752 5756 5761 5776 5782 5774 5766 5778 5790 5798 5800 5801 5800 5799 5797 5793 5793 5792 5790 5789 5786 5783 5781 5776 5772 5770 5767 5761 5756 5751 5748 5745 5743 5742 5742 5741 5740
5739 5757 5761 5756 5755 5756 5744 5765 5768 5766 5753 5744 5758 5732 5758 5775 5781 5788 5790 5792 5792 5796 5796 5792 5790 5788 5787 5786 5784 5779 5774 5770 5767 5763 5758 5753 5747 5743 5742 5740 5739 5739 5738 5737
5736 5753 5751 5748 5757 5762 5756 5771 5766 5762 5750 5739 5745 5731 5742 5765 5767 5777 5783 5788 5791 5794 5793 5790 5789 5787 5786 5786 5782 5777 5772 5768 5765 5761 5757 5752 5747 5743 5741 5738 5736 5735 5735 5735
5741 5757 5757 5758 5767 5768 5766 5761 5754 5743 5730 5716 5733 5728 5729 5752 5766 5775 5782 5786 5788 5789 5789 5787 5787 5786 5784 5781 5777 5773 5769 5764 5762 5758 5754 5750 5745 5741 5737 5735 5733 5732 5732 5731
5726 5741 5756 5763 5752 5756 5753 5726 5704 5702 5695 5704 5732 5727 5731 5762 5775 5778 5780 5782 5784 5785 5783 5781 5779 5777 5777 5774 5771 5768 5764 5760 5758 5755 5751 5748 5744 5740 5736 5733 5731 5729 5728 5727
5702 5710 5741 5754 5748 5739 5740 5725 5696 5686 5686 5701 5725 5720 5740 5767 5775 5779 5780 5780 5778 5777 5778 5777 5776 5774 5772 5770 5767 5764 5759 5755 5752 5750 5747 5745 5741 5738 5735 5733 5731 5729 5727 5726
5700 5708 5744 5755 5760 5749 5734 5723 5723 5702 5700 5695 5706 5726 5747 5763 5765 5769 5772 5771 5769 5770 5771 5771 5771 5770 5768 5765 5763 5760 5756 5751 5748 5745 5742 5739 5737 5735 5733 5731 5730 5728 5727 5726
5712 5706 5729 5746 5753 5749 5742 5733 5710 5694 5682 5680 5698 5713 5721 5741 5749 5757 5759 5760 5762 5764 5765 5764 5764 5765 5763 5760 5758 5756 5752 5746 5744 5742 5739 5736 5733 5731 5730 5729 5727 5725 5724 5723
5713 5699 5711 5724 5724 5723 5727 5722 5709 5693 5690 5679 5678 5699 5739 5741 5746 5749 5754 5758 5759 5759 5759 5758 5757 5756 5756 5754 5751 5748 5746 5742 5739 5738 5735 5732 5730 5728 5726 5725 5724 5723 5721 5719
5708 5692 5688 5705 5727 5737 5728 5718 5705 5687 5683 5684 5680 5697 5744 5744 5747 5749 5752 5754 5755 5755 5755 5754 5752 5749 5747 5746 5744 5741 5739 5737 5735 5734 5731 5728 5725 5723 5721 5721 5721 5720 5718 5716
5703 5684 5673 5681 5697 5715 5716 5716 5709 5697 5685 5679 5678 5697 5738 5740 5743 5746 5748 5749 5748 5748 5749 5747 5745 5741 5739 5738 5737 5735 5734 5732 5731 5729 5726 5722 5720 5719 5717 5717 5717 5716 5714 5712
5706 5680 5672 5669 5679 5695 5700 5707 5709 5695 5678 5680 5689 5703 5720 5727 5731 5735 5739 5742 5742 5742 5743 5741 5737 5735 5734 5732 5731 5730 5729 5728 5726 5723 5720 5717 5716 5714 5714 5713 5713 5712 5711 5709
5690 5675 5682 5687 5697 5701 5700 5702 5705 5698 5693 5688 5697 5705 5715 5723 5728 5732 5735 5736 5737 5736 5736 5734 5732 5731 5729 5727 5726 5725 5724 5722 5721 5717 5714 5712 5712 5711 5710 5709 5709 5708 5707 5706
5676 5670 5675 5680 5692 5695 5693 5699 5701 5701 5701 5700 5702 5705 5722 5725 5728 5729 5730 5731 5731 5731 5731 5730 5727 5726 5725 5725 5723 5720 5718 5717 5715 5712 5710 5709 5708 5707 5705 5704 5704 5703 5702 5700
5663 5661 5657 5659 5679 5681 5674 5688 5693 5694 5699 5698 5693 5705 5716 5716 5719 5721 5725 5727 5727 5727 5726 5725 5723 5721 5720 5721 5721 5717 5715 5713 5710 5707 5706 5705 5703 5701 5700 5700 5699 5697 5696 5695
5657 5652 5645 5648 5660 5650 5672 5693 5697 5693 5693 5698 5701 5706 5711 5713 5716 5719 5722 5721 5721 5721 5720 5719 5718 5717 5718 5717 5716 5715 5712 5709 5706 5703 5701 5700 5699 5698 5696 5694 5693 5692 5691 5689
5659 5650 5641 5637 5640 5651 5672 5684 5688 5683 5680 5691 5694 5700 5704 5709 5708 5708 5716 5718 5716 5714 5715 5714 5714 5714 5713 5713 5712 5710 5706 5704 5701 5699 5698 5697 5696 5694 5692 5690 5688 5688 5686 5685
5652 5648 5638 5633 5634 5637 5659 5680 5690 5682 5668 5686 5690 5692 5694 5699 5687 5693 5708 5712 5712 5709 5709 5707 5707 5708 5707 5708 5707 5703 5700 5697 5696 5695 5694 5694 5692 5690 5688 5686 5685 5684 5683 5681
5632 5630 5629 5628 5627 5639 5660 5675 5681 5660 5662 5679 5685 5686 5688 5686 5687 5692 5700 5703 5705 5704 5704 5703 5701 5700 5701 5701 5701 5697 5694 5692 5693 5692 5691 5690 5688 5687 5685 5682 5681 5679 5678 5676
5622 5620 5622 5622 5620 5630 5656 5663 5656 5656 5668 5674 5677 5680 5682 5683 5686 5687 5690 5693 5696 5696 5697 5697 5694 5693 5694 5695 5694 5691 5689 5689 5689 5688 5686 5684 5683 5683 5681 5678 5676 5675 5673 5670
5618 5619 5621 5624 5627 5640 5650 5652 5657 5659 5662 5666 5669 5674 5676 5676 5678 5679 5681 5683 5686 5689 5690 5689 5688 5687 5688 5689 5689 5686 5685 5684 5683 5681 5680 5679 5679 5677 5676 5673 5671 5669 5667 5665
5616 5622 5621 5623 5630 5639 5645 5650 5654 5657 5659 5663 5666 5668 5670 5670 5671 5671 5673 5675 5677 5680 5682 5683 5682 5681 5681 5683 5683 5681 5680 5679 5677 5675 5673 5673 5672 5670 5669 5668 5666 5664 5662 5660
5609 5614 5615 5617 5625 5632 5639 5644 5648 5652 5655 5658 5660 5662 5663 5664 5665 5667 5668 5670 5672 5674 5675 5676 5676 5675 5675 5676 5676 5676 5675 5673 5670 5668 5667 5666 5666 5664 5662 5661 5659 5659 5658 5658
5605 5607 5609 5612 5620 5623 5628 5637 5643 5645 5648 5651 5652 5653 5656 5659 5660 5662 5662 5665 5666 5667 5668 5668 5668 5668 5670 5670 5670 5669 5669 5667 5664 5661 5660 5659 5658 5657 5656 5654 5652 5653 5653 5653